Notices

What's New in latest Release from April 7th, 2021:

- Updated Glossary, including Speed of Maximum Gust, and Total Hourly Precipitation

- Updated national and regional climate services offices contacts and prices information

- Addition of station inventory lists for 1981-2010, 1971-2000, and 1961-1990 Normals.

If you haven't already, please take our survey and provide feedback about our website: https://eccc.sondage-survey.ca/f/LanguageSelection.aspx?s=442ca660-fcf1-47c0-95a9-59707d6fd709

Hourly Data Report for March 14, 2012

HALIFAX STANFIELD INT'L A
NOVA SCOTIA

44°52'48.060" N
63°30'00.050" W
145.40 m
8202250
71395
YHZ

Download Data

Hourly Data (March 2012)
Hourly Data Report for March 14, 2012
TIME
LST
Temp Definition
°C
Dew Point Definition
°C
Rel Hum Definition
%
Precip. Amount Definition
mm

Wind Dir Definition
10's deg

Wind Spd Definition
km/h
Visibility Definition
km
Stn Press Definition
kPa
Hmdx Definition


Wind Chill Definition


Weather Definition


00:00 -0.7 -1.6 94   11 26 16.1 100.26   -7 Freezing Rain
01:00 -0.8 -1.9 92   10 22 16.1 100.28   -7 Freezing Rain
02:00 -1.0 -2.0 93   9 19 24.1 100.30   -6 Freezing Rain
03:00 -1.4 -2.2 94   7 15 24.1 100.30   -6 Cloudy
04:00 -1.6 -2.6 93   8 11 24.1 100.34   -5 Freezing Drizzle
05:00 -1.6 -2.4 94   7 13 2.4 100.39   -6 Freezing Drizzle,Fog
06:00 -1.6 -2.4 94   8 13 4.0 100.36   -6 Freezing Drizzle,Fog
07:00 -1.5 -2.2 95   9 19 4.0 100.39   -7 Freezing Drizzle,Fog
08:00 -1.1 -1.7 96   8 19 4.8 100.45   -6 Fog
09:00 -0.8 -1.4 96   8 19 6.4 100.46   -6 Fog
10:00 -0.6 -1.1 96   6 19 9.7 100.52   -6 Fog
11:00 -0.5 -0.9 97   7 15 4.8 100.56   -5 Fog
12:00 -0.3 -0.7 97   5 7 4.0 100.54   -3 Freezing Drizzle,Fog
13:00 -0.1 -0.7 96   7 19 4.0 100.51   -5 Freezing Drizzle,Fog
14:00 -0.1 -0.5 97   5 19 2.4 100.44   -5 Freezing Drizzle,Fog
15:00 -0.1 -0.6 96   5 17 2.4 100.37   -5 Freezing Drizzle,Fog
16:00 -0.2 -0.7 96   9 9 2.0 100.60   -3 Freezing Rain,Ice Pellets,Fog
17:00 -0.3 -0.8 96   4 13 2.4 100.54   -4 Snow,Ice Pellet Showers,Fog
18:00 -0.5 -1.0 96   8 15 16.1 100.42   -5 Freezing Rain
19:00 -0.4 -1.4 93   7 22 24.1 100.41   -6 Freezing Drizzle
20:00 -0.5 -1.4 94   7 17 24.1 100.44   -5 Freezing Drizzle
21:00 -0.6 -1.4 94   7 17 19.3 100.51   -6 Freezing Drizzle
22:00 -0.7 -1.5 94   7 9 2.0 100.54   -4 Snow Grains
23:00 -0.8 -1.7 94   7 17 3.2 100.52   -6 Freezing Drizzle,Fog

Notes on Data Quality.

Legend

  • E = Estimated
  • M = Missing
  • NA = Not Available*
  • [empty] = Indicates an unobserved value
Date modified: